[[{"header":{"parameterUnit":"m.s-1","parameterCategory":2,"la1":30.2992,"la2":30.254,"lo1":-89.0895,"lo2":-89.0443,"dy":0.0025,"dx":0.0025,"nx":19,"ny":19,"refTime":"2026-04-17T21:00:00:Z","depth":"0","parameterNumber":2,"parameterNumberName":"U-component_of_CURRENTS"},"data":[0,0,0,-0.0592,-0.0594,-0.0683,-0.0684,-0.0784,-0.0785,0,0,0,0,0,0,0,0,0,0,0,-0.0557,-0.0558,-0.0592,-0.0594,-0.0683,-0.0684,-0.0784,-0.0785,0,0,0,0,0,0,0,0,0,0,0,-0.0557,-0.0557,-0.0558,-0.0594,-0.0683,-0.0684,-0.0784,-0.0722,0,0,0,0,0,0,0,0,0,0,-0.0638,-0.0601,-0.0557,-0.0558,-0.0595,-0.0683,-0.0684,-0.0719,-0.0726,-0.0736,0,-0.0742,0,-0.0763,-0.079,-0.079,0,0,0,-0.0604,-0.0596,-0.0621,-0.0558,-0.0595,-0.0683,-0.0646,-0.0723,-0.0731,-0.0744,-0.0743,-0.0747,-0.0764,-0.0791,-0.0791,-0.0842,-0.0842,0,0,-0.0599,-0.0576,-0.0616,-0.0626,-0.0608,-0.0643,-0.0649,-0.0728,-0.073,-0.0744,-0.075,-0.0766,-0.0791,-0.0792,-0.0842,-0.0842,0,0,0,-0.0578,-0.0572,-0.0596,-0.0621,-0.0637,-0.0645,-0.0652,-0.0726,-0.0735,-0.0751,-0.0767,-0.0792,-0.0793,-0.0842,-0.0842,-0.0779,0,0,0,-0.0576,-0.0559,-0.0594,-0.0581,-0.0635,-0.0684,-0.0648,-0.0729,-0.0739,-0.0766,-0.0792,-0.0793,-0.0842,-0.0842,-0.0781,-0.0728,0,0,0,-0.0555,-0.0557,-0.0564,-0.0579,-0.0614,-0.0684,-0.0697,-0.0732,-0.0748,-0.079,-0.0794,-0.0842,-0.0842,-0.0782,-0.0732,-0.0628,0,0,0,-0.0533,-0.0545,-0.0564,-0.059,-0.0613,-0.0676,-0.0697,-0.0751,-0.0787,-0.0792,-0.0842,-0.0842,-0.0783,-0.0735,-0.0632,-0.0582,-0.0561,0,0,-0.0537,-0.0544,-0.0564,-0.0583,-0.0638,-0.0665,-0.0697,-0.075,-0.0786,-0.0817,-0.0819,-0.078,-0.0733,-0.0629,-0.0577,-0.0555,0,0,0,-0.056,-0.0569,-0.0593,-0.0626,-0.0674,-0.0682,-0.0739,-0.0736,-0.076,-0.0805,-0.0796,-0.0768,-0.0703,-0.0683,-0.0667,-0.0663,-0.0842,-0.0842,-0.0842,-0.053,-0.0568,-0.0599,-0.0642,-0.0671,-0.0699,-0.0684,-0.0688,-0.0751,-0.0739,-0.0729,-0.0623,-0.0605,-0.0591,-0.0589,-0.0757,-0.0757,-0.0757,-0.0757,-0.0536,-0.0551,-0.0587,-0.0627,-0.0636,-0.0653,-0.0631,-0.0635,-0.0582,-0.0666,-0.0607,-0.0635,-0.0568,-0.0573,-0.0753,-0.0754,-0.0754,-0.0754,-0.0755,-0.051,-0.0519,-0.0549,-0.0587,-0.0588,-0.0607,-0.0542,-0.0536,-0.0511,-0.0464,-0.0431,-0.0432,-0.0419,-0.0444,-0.0444,-0.0443,-0.0442,-0.0442,-0.0441,-0.0464,-0.0496,-0.0509,-0.0546,-0.055,-0.0535,-0.0489,-0.0431,-0.0349,-0.0334,-0.0334,-0.0384,-0.0526,-0.0519,-0.0431,-0.0433,-0.0434,-0.0435,-0.0436,-0.0435,-0.0448,-0.046,-0.0468,-0.0472,-0.0427,-0.0404,-0.0271,-0.0187,-0.0116,-0.0156,-0.0246,-0.0243,-0.0258,-0.0244,-0.009,-0.009,-0.009,-0.009,-0.0402,-0.0415,-0.0415,-0.0407,-0.0386,-0.0368,-0.0242,-0.015,-0.0048,-0.0,-0.0012,-0.01,-0.0115,-0.0111,-0.0129,-0.0116,0.0067,0.0067,0.0068,-0.0383,-0.0387,-0.0369,-0.0371,-0.0348,-0.0294,-0.0176,-0.0055,0.0056,0.0071,-0.001,-0.0016,-0.0156,-0.0178,-0.019,-0.0216,-0.0202,0,0]},{"header":{"parameterUnit":"m.s-1","parameterCategory":2,"la1":30.2992,"la2":30.254,"lo1":-89.0895,"lo2":-89.0443,"dy":0.0025,"dx":0.0025,"nx":19,"ny":19,"refTime":"2026-04-17T21:00:00:Z","depth":"0","parameterNumber":3,"parameterNumberName":"V-component_of_CURRENTS"},"data":[0,0,0,0.0218,0.0218,0.0221,0.0221,0.0204,0.0204,0,0,0,0,0,0,0,0,0,0,0,0.0216,0.0216,0.0218,0.0218,0.0221,0.0221,0.0204,0.0204,0,0,0,0,0,0,0,0,0,0,0,0.0216,0.0216,0.0216,0.0218,0.0221,0.0221,0.0204,0.0207,0,0,0,0,0,0,0,0,0,0,0.0207,0.0207,0.0216,0.0216,0.0218,0.0221,0.0221,0.0208,0.0207,0.0197,0,0.0197,0,0.0199,0.0202,0.0202,0,0,0,0.0219,0.0208,0.0209,0.0216,0.0218,0.0221,0.022,0.0208,0.0207,0.0196,0.0196,0.0196,0.0199,0.0202,0.0202,0.0085,0.0084,0,0,0.0218,0.0216,0.021,0.0209,0.0217,0.0219,0.022,0.0207,0.0205,0.0196,0.0196,0.0198,0.0202,0.0202,0.0086,0.0085,0,0,0,0.0217,0.0215,0.0218,0.0209,0.0211,0.022,0.022,0.0206,0.0207,0.0195,0.0198,0.0202,0.0202,0.0087,0.0086,0.0067,0,0,0,0.0217,0.0215,0.0218,0.0216,0.0211,0.0211,0.0218,0.0207,0.0206,0.0198,0.0202,0.0201,0.0089,0.0087,0.0071,0.0106,0,0,0,0.0216,0.0215,0.0215,0.0216,0.0217,0.0211,0.0212,0.0207,0.0208,0.0202,0.0201,0.0089,0.0087,0.0073,0.0109,0.02,0,0,0,0.0213,0.0199,0.0215,0.0191,0.0217,0.0177,0.0212,0.0191,0.0182,0.0202,0.0088,0.0086,0.0074,0.0111,0.02,0.0266,0.0273,0,0,0.019,0.0196,0.0179,0.0193,0.0152,0.0177,0.0118,0.0131,0.0134,0.0095,0.0092,0.0069,0.0109,0.02,0.0116,0.0128,0,0,0,0.0168,0.0158,0.0146,0.0129,0.0111,0.0093,0.0088,0.0082,0.0054,0.0117,0.0021,0.0047,0.0107,0.0143,0.015,0.0205,0.0074,0.0074,0.0074,0.0136,0.0124,0.0088,0.0067,0.0042,0.0022,0.0018,0.0001,-0.0007,-0.0035,-0.0006,0.0002,0.0031,0.004,0.0092,-0.0073,-0.0073,-0.0073,-0.0073,0.0092,0.0068,0.0048,0.0013,-0.0009,-0.0052,-0.0066,-0.0058,-0.0035,-0.0077,-0.0018,0.0072,0.0049,0.01,-0.0075,-0.0075,-0.0074,-0.0074,-0.0074,0.0071,0.0056,0.004,-0.001,-0.0047,-0.0078,-0.0053,-0.0054,-0.0024,0.0012,0.0116,0.0117,0.0208,0.0053,0.0053,0.0054,0.0054,0.0054,0.0055,0.0058,0.0038,0.001,-0.0033,-0.0059,-0.0067,-0.0031,0.0028,0.0115,0.0133,0.0134,0.02,0.0043,0.009,0.0062,0.0061,0.006,0.0059,0.0059,0.0023,0.0031,-0.0014,-0.0038,-0.0076,-0.0046,0.0002,0.0163,0.0255,0.0326,0.0354,0.022,0.0265,0.0257,0.0309,0.0341,0.0341,0.0341,0.0341,0.0009,0.0006,-0.0038,-0.007,-0.0079,-0.0043,0.0115,0.0271,0.0432,0.0502,0.0497,0.0446,0.0432,0.0484,0.0471,0.0525,0.0611,0.0612,0.0612,-0.0017,-0.0024,-0.0056,-0.0078,-0.0091,-0.0011,0.0147,0.0391,0.06,0.0625,0.0562,0.0551,0.0471,0.0445,0.0518,0.0496,0.0582,0,0]}],[{"header":{"parameterUnit":"m.s-1","parameterCategory":2,"la1":30.2992,"la2":30.254,"lo1":-89.0895,"lo2":-89.0443,"dy":0.0025,"dx":0.0025,"nx":19,"ny":19,"refTime":"2026-04-17T21:00:00:Z","depth":"2","parameterNumber":2,"parameterNumberName":"U-component_of_CURRENTS"},"data":[0,0,0,-0.0683,-0.0685,-0.0758,-0.0759,-0.0881,-0.0882,0,0,0,0,0,0,0,0,0,0,0,-0.0656,-0.0657,-0.0683,-0.0685,-0.0758,-0.0759,-0.0881,-0.0882,0,0,0,0,0,0,0,0,0,0,0,-0.0656,-0.0657,-0.0657,-0.0685,-0.0758,-0.0759,-0.0881,-0.0821,0,0,0,0,0,0,0,0,0,0,-0.0747,-0.0711,-0.0657,-0.0657,-0.0685,-0.0758,-0.0759,-0.0818,-0.0825,-0.0853,0,-0.0856,0,-0.087,-0.089,-0.0891,0,0,0,-0.0695,-0.0705,-0.0727,-0.0657,-0.0686,-0.0758,-0.0728,-0.0821,-0.0829,-0.0862,-0.0858,-0.0863,-0.0872,-0.0891,-0.0892,-0.0971,-0.0971,0,0,-0.0691,-0.0672,-0.0721,-0.0731,-0.0696,-0.0726,-0.073,-0.0826,-0.083,-0.0859,-0.0866,-0.0874,-0.0892,-0.0893,-0.0971,-0.0971,0,0,0,-0.0672,-0.0669,-0.0689,-0.0726,-0.0736,-0.0728,-0.0733,-0.0826,-0.0832,-0.0867,-0.0875,-0.0893,-0.0894,-0.0971,-0.0971,-0.091,0,0,0,-0.067,-0.0658,-0.0686,-0.0677,-0.0733,-0.0777,-0.073,-0.0826,-0.0837,-0.0874,-0.0893,-0.0895,-0.0971,-0.0971,-0.0911,-0.0858,0,0,0,-0.0655,-0.0656,-0.0662,-0.0675,-0.0703,-0.0775,-0.0788,-0.0828,-0.0841,-0.0891,-0.0895,-0.0971,-0.0971,-0.0913,-0.0862,-0.0755,0,0,0,-0.0638,-0.0648,-0.0662,-0.0684,-0.0702,-0.0764,-0.0787,-0.084,-0.0882,-0.0893,-0.0971,-0.0971,-0.0913,-0.0864,-0.0759,-0.0732,-0.0712,0,0,-0.0643,-0.0648,-0.0664,-0.0678,-0.073,-0.0755,-0.0791,-0.085,-0.0889,-0.0944,-0.0946,-0.0911,-0.0862,-0.0756,-0.0731,-0.0711,0,0,0,-0.0662,-0.0669,-0.0691,-0.072,-0.0767,-0.078,-0.0841,-0.0841,-0.0875,-0.0911,-0.0928,-0.0899,-0.0833,-0.0826,-0.0811,-0.0971,-0.0971,-0.0971,-0.0971,-0.0639,-0.0672,-0.0702,-0.0742,-0.0774,-0.0807,-0.0797,-0.0809,-0.0875,-0.0865,-0.0862,-0.0757,-0.0753,-0.074,-0.0893,-0.0892,-0.0892,-0.0892,-0.0892,-0.0644,-0.0656,-0.0694,-0.0729,-0.0748,-0.0772,-0.0763,-0.0766,-0.072,-0.0804,-0.0743,-0.078,-0.0719,-0.0887,-0.0888,-0.0889,-0.0889,-0.089,-0.089,-0.0619,-0.0628,-0.0653,-0.0692,-0.0704,-0.0731,-0.0675,-0.0673,-0.065,-0.0603,-0.0579,-0.058,-0.067,-0.0579,-0.0578,-0.0577,-0.0577,-0.0576,-0.0576,-0.0575,-0.0604,-0.0613,-0.0652,-0.0662,-0.0656,-0.0619,-0.0565,-0.0493,-0.0485,-0.0484,-0.065,-0.066,-0.0651,-0.0565,-0.0567,-0.0568,-0.0569,-0.057,-0.054,-0.0551,-0.0559,-0.0569,-0.0584,-0.0546,-0.0532,-0.0415,-0.0335,-0.0275,-0.0397,-0.0405,-0.0403,-0.0417,-0.0403,-0.0257,-0.0257,-0.0257,-0.0256,-0.0504,-0.0515,-0.0509,-0.0506,-0.0496,-0.0488,-0.0365,-0.0293,-0.0241,-0.0228,-0.0229,-0.0329,-0.0342,-0.0343,-0.036,-0.0347,-0.0186,-0.0186,-0.0186,-0.0477,-0.0481,-0.046,-0.0466,-0.0459,-0.041,-0.0291,-0.0181,-0.015,-0.0187,-0.025,-0.0245,-0.0403,-0.0419,-0.0435,-0.0455,-0.0441,0,0]},{"header":{"parameterUnit":"m.s-1","parameterCategory":2,"la1":30.2992,"la2":30.254,"lo1":-89.0895,"lo2":-89.0443,"dy":0.0025,"dx":0.0025,"nx":19,"ny":19,"refTime":"2026-04-17T21:00:00:Z","depth":"2","parameterNumber":3,"parameterNumberName":"V-component_of_CURRENTS"},"data":[0,0,0,0.0101,0.0101,0.0108,0.0108,0.0098,0.0098,0,0,0,0,0,0,0,0,0,0,0,0.0098,0.0098,0.0101,0.0101,0.0108,0.0108,0.0098,0.0098,0,0,0,0,0,0,0,0,0,0,0,0.0098,0.0098,0.0099,0.0101,0.0108,0.0108,0.0098,0.0098,0,0,0,0,0,0,0,0,0,0,0.0094,0.0091,0.0098,0.0099,0.0101,0.0108,0.0108,0.0098,0.0098,0.009,0,0.0091,0,0.0094,0.0097,0.0097,0,0,0,0.0102,0.0091,0.0096,0.0099,0.0101,0.0108,0.0105,0.0098,0.0098,0.0089,0.0091,0.009,0.0093,0.0097,0.0097,-0.0014,-0.0015,0,0,0.0101,0.0097,0.0096,0.0095,0.0102,0.0105,0.0105,0.0098,0.0096,0.0091,0.009,0.0093,0.0097,0.0097,-0.0013,-0.0014,0,0,0,0.01,0.0097,0.0101,0.0096,0.0098,0.0105,0.0106,0.0096,0.0098,0.009,0.0093,0.0097,0.0096,-0.0011,-0.0013,-0.0037,0,0,0,0.01,0.0096,0.0101,0.0098,0.0098,0.0099,0.0103,0.0099,0.0098,0.0093,0.0097,0.0096,-0.001,-0.0012,-0.0033,-0.0007,0,0,0,0.0098,0.0096,0.0097,0.0098,0.0101,0.0099,0.0101,0.0099,0.01,0.0097,0.0096,-0.0009,-0.0012,-0.0031,-0.0004,0.0071,0,0,0,0.0093,0.0079,0.0097,0.0073,0.0101,0.0064,0.0101,0.0082,0.0075,0.0097,-0.001,-0.0013,-0.003,-0.0002,0.0071,0.0114,0.0116,0,0,0.0069,0.0076,0.0058,0.0074,0.0033,0.0064,0.0005,0.0021,0.0029,-0.0006,-0.0008,-0.0035,-0.0004,0.0071,-0.0036,-0.0028,0,0,0,0.0046,0.0035,0.0024,0.0007,-0.0008,-0.0025,-0.0023,-0.0028,-0.0053,0.0013,-0.0081,-0.0061,-0.0012,0.0012,0.0016,-0.0025,-0.0025,-0.0025,-0.0024,0.0009,-0.0002,-0.004,-0.0058,-0.0081,-0.0097,-0.0103,-0.0116,-0.0115,-0.0142,-0.0116,-0.0123,-0.0106,-0.01,-0.0177,-0.0177,-0.0177,-0.0177,-0.0178,-0.0039,-0.0063,-0.0083,-0.0118,-0.0138,-0.0177,-0.0191,-0.0181,-0.0164,-0.0192,-0.0142,-0.0062,-0.0096,-0.018,-0.018,-0.0179,-0.0179,-0.0179,-0.0179,-0.0062,-0.0076,-0.0093,-0.0145,-0.0182,-0.0209,-0.0195,-0.0194,-0.0163,-0.0135,-0.0047,-0.0046,-0.0055,-0.0096,-0.0096,-0.0095,-0.0095,-0.0095,-0.0095,-0.0075,-0.0096,-0.0126,-0.017,-0.0197,-0.0209,-0.0181,-0.0134,-0.0062,-0.0045,-0.0044,-0.0093,-0.0096,-0.005,-0.0089,-0.009,-0.009,-0.0091,-0.0091,-0.0108,-0.0103,-0.015,-0.0176,-0.0222,-0.0201,-0.0163,-0.0032,0.0043,0.01,0.0025,0.002,0.0061,0.0056,0.0105,0.011,0.011,0.011,0.011,-0.0121,-0.0126,-0.0174,-0.0212,-0.0233,-0.0204,-0.0068,0.0056,0.0133,0.0142,0.014,0.0088,0.008,0.0119,0.0113,0.0162,0.0182,0.0182,0.0182,-0.0145,-0.0153,-0.0187,-0.0218,-0.0246,-0.0179,-0.0033,0.0172,0.0247,0.0182,0.0125,0.012,0.0036,0.0026,0.008,0.0072,0.0148,0,0]}],[{"header":{"parameterUnit":"m.s-1","parameterCategory":2,"la1":30.2992,"la2":30.254,"lo1":-89.0895,"lo2":-89.0443,"dy":0.0025,"dx":0.0025,"nx":19,"ny":19,"refTime":"2026-04-17T21:00:00:Z","depth":"4","parameterNumber":2,"parameterNumberName":"U-component_of_CURRENTS"},"data":[0,0,0,-0.0657,-0.0658,-0.0732,-0.0733,-0.0886,-0.0888,0,0,0,0,0,0,0,0,0,0,0,-0.0634,-0.0635,-0.0656,-0.0658,-0.0732,-0.0733,-0.0886,-0.0888,0,0,0,0,0,0,0,0,0,0,0,-0.0634,-0.0635,-0.0635,-0.0658,-0.0732,-0.0733,-0.0886,-0.0817,0,0,0,0,0,0,0,0,0,0,-0.0739,-0.0704,-0.0635,-0.0635,-0.0659,-0.0732,-0.0733,-0.0813,-0.0822,-0.0866,0,-0.0874,0,-0.0881,-0.0898,-0.0899,0,0,0,-0.0668,-0.0697,-0.0718,-0.0635,-0.0659,-0.0732,-0.0702,-0.0818,-0.0827,-0.0877,-0.0876,-0.0882,-0.0884,-0.0899,-0.09,-0.1058,-0.1058,0,0,-0.0663,-0.0652,-0.0711,-0.0723,-0.0676,-0.0699,-0.0704,-0.0823,-0.0833,-0.0877,-0.0885,-0.0886,-0.09,-0.0902,-0.1057,-0.1058,0,0,0,-0.0645,-0.0649,-0.0665,-0.0717,-0.0724,-0.0701,-0.0706,-0.0827,-0.0833,-0.0887,-0.0888,-0.0901,-0.0903,-0.1057,-0.1058,-0.1033,0,0,0,-0.0643,-0.0637,-0.0663,-0.0658,-0.0722,-0.0768,-0.0708,-0.0825,-0.0838,-0.0887,-0.0901,-0.0905,-0.1056,-0.1057,-0.1033,-0.1059,0,0,0,-0.0631,-0.0636,-0.0643,-0.0657,-0.0684,-0.0766,-0.0779,-0.0827,-0.0839,-0.0899,-0.0905,-0.1056,-0.1057,-0.1032,-0.1057,-0.11,0,0,0,-0.0619,-0.0632,-0.0643,-0.0665,-0.0683,-0.0748,-0.0778,-0.0832,-0.088,-0.0902,-0.1056,-0.1058,-0.1032,-0.1056,-0.1099,-0.0856,0,0,0,-0.0627,-0.0632,-0.0646,-0.0658,-0.0702,-0.0738,-0.0807,-0.0876,-0.0918,-0.1022,-0.1025,-0.1033,-0.1057,-0.11,-0.0933,0,0,0,0,-0.0643,-0.065,-0.0668,-0.0696,-0.0744,-0.0803,-0.0865,-0.0903,-0.0986,-0.0951,-0.1066,-0.1084,-0.111,-0.0965,-0.1064,-0.1063,-0.1063,-0.1063,-0.1063,-0.0632,-0.0656,-0.0684,-0.0726,-0.0775,-0.0856,-0.0912,-0.0984,-0.1011,-0.1043,-0.1085,-0.1138,-0.0983,-0.1092,-0.1092,-0.1092,-0.1092,-0.1092,-0.1092,-0.0634,-0.0644,-0.0693,-0.0726,-0.0795,-0.0861,-0.0977,-0.1003,-0.1117,-0.111,-0.1136,-0.0977,-0.1091,-0.1091,-0.1091,-0.1091,-0.1091,-0.1092,-0.1092,-0.0613,-0.0621,-0.0647,-0.0699,-0.077,-0.086,-0.0938,-0.1047,-0.1117,-0.1156,-0.1032,-0.1155,-0.1133,-0.117,-0.1171,-0.1171,-0.1171,-0.1171,-0.1172,-0.0572,-0.0601,-0.0612,-0.0674,-0.0704,-0.0783,-0.094,-0.0977,-0.108,-0.1024,-0.1174,-0.1165,-0.1163,-0.1141,-0.1176,-0.1175,-0.1175,-0.1174,-0.1174,-0.0532,-0.0547,-0.0558,-0.0579,-0.0643,-0.0691,-0.0845,-0.0861,-0.0917,-0.0874,-0.0953,-0.0963,-0.0966,-0.0969,-0.094,-0.0917,-0.0914,-0.0911,0,-0.0495,-0.0507,-0.0508,-0.0521,-0.0547,-0.0639,-0.0622,-0.0669,-0.0758,-0.0758,-0.0931,-0.1025,-0.1029,-0.1034,-0.1033,-0.0999,0,0,0,-0.0463,-0.0471,-0.0455,-0.0477,-0.0493,-0.0528,-0.0616,-0.0591,-0.0765,-0.0644,-0.0837,-0.0856,-0.0933,-0.119,-0.1219,-0.1216,-0.1183,0,0]},{"header":{"parameterUnit":"m.s-1","parameterCategory":2,"la1":30.2992,"la2":30.254,"lo1":-89.0895,"lo2":-89.0443,"dy":0.0025,"dx":0.0025,"nx":19,"ny":19,"refTime":"2026-04-17T21:00:00:Z","depth":"4","parameterNumber":3,"parameterNumberName":"V-component_of_CURRENTS"},"data":[0,0,0,0.0073,0.0073,0.0082,0.0082,0.0104,0.0104,0,0,0,0,0,0,0,0,0,0,0,0.007,0.007,0.0073,0.0073,0.0082,0.0082,0.0104,0.0104,0,0,0,0,0,0,0,0,0,0,0,0.007,0.007,0.007,0.0073,0.0082,0.0082,0.0104,0.0095,0,0,0,0,0,0,0,0,0,0,0.0085,0.0076,0.007,0.007,0.0073,0.0082,0.0082,0.0094,0.0095,0.0103,0,0.0104,0,0.0105,0.0106,0.0106,0,0,0,0.0074,0.0075,0.0082,0.007,0.0073,0.0082,0.0078,0.0095,0.0096,0.0105,0.0104,0.0105,0.0105,0.0106,0.0106,0.017,0.0171,0,0,0.0073,0.0068,0.0081,0.0083,0.0075,0.0078,0.0078,0.0096,0.0094,0.0104,0.0106,0.0106,0.0106,0.0107,0.017,0.017,0,0,0,0.0072,0.0067,0.0074,0.0082,0.0083,0.0078,0.0079,0.0093,0.0097,0.0106,0.0106,0.0106,0.0107,0.0169,0.017,0.0116,0,0,0,0.0071,0.0066,0.0073,0.007,0.0082,0.0085,0.0076,0.0096,0.0098,0.0106,0.0106,0.0107,0.0169,0.017,0.0116,0.006,0,0,0,0.007,0.0066,0.0068,0.0069,0.0073,0.0085,0.0089,0.0096,0.0098,0.0106,0.0107,0.0168,0.0169,0.0116,0.0062,-0.0011,0,0,0,0.0063,0.005,0.0068,0.0046,0.0073,0.0051,0.0089,0.0076,0.0077,0.0107,0.0169,0.017,0.0117,0.0063,-0.0009,0.0026,0,0,0,0.0041,0.0048,0.0032,0.0047,0.0011,0.005,0.0046,0.0069,0.0107,0.0162,0.0164,0.0116,0.0062,-0.0011,0.01,0,0,0,0,0.0019,0.0009,-0.0001,-0.0016,-0.002,-0.0006,0.0026,0.0066,0.0121,0.0116,0.0157,0.0124,0.0079,0.0111,0.0176,0.0176,0.0176,0.0175,0.0175,-0.0019,-0.0028,-0.0062,-0.0068,-0.0074,-0.0037,-0.0019,0.0053,0.0097,0.0134,0.0112,0.006,0.0099,0.0166,0.0166,0.0166,0.0166,0.0166,0.0166,-0.0065,-0.0087,-0.0098,-0.0129,-0.0114,-0.0106,-0.0037,0.0008,0.0037,0.0112,0.0071,0.0093,0.0161,0.0162,0.0163,0.0163,0.0164,0.0164,0.0164,-0.0089,-0.0101,-0.012,-0.0159,-0.0172,-0.0138,-0.0135,-0.008,-0.0034,-0.0061,-0.004,0.0004,-0.0032,-0.0079,-0.008,-0.008,-0.0081,-0.0081,-0.0081,-0.0101,-0.0122,-0.0155,-0.019,-0.0215,-0.0221,-0.0204,-0.0201,-0.0165,-0.0119,-0.009,-0.0024,-0.0016,-0.0045,-0.009,-0.0088,-0.0087,-0.0087,-0.0086,-0.0129,-0.013,-0.0178,-0.0209,-0.0266,-0.0271,-0.0274,-0.0258,-0.0286,-0.0267,-0.0154,-0.0148,-0.0144,-0.0134,-0.0168,-0.0251,-0.0251,-0.025,0,-0.014,-0.0147,-0.0201,-0.0246,-0.0288,-0.0293,-0.0301,-0.0297,-0.0271,-0.0258,-0.029,-0.0163,-0.0156,-0.015,-0.0141,-0.0179,0,0,0,-0.0161,-0.0171,-0.0208,-0.0249,-0.0296,-0.029,-0.0297,-0.0288,-0.0266,-0.026,-0.0246,-0.0247,-0.0139,-0.0115,-0.0097,-0.0087,-0.0135,0,0]}]]